This demonstration page uses our WeatherBlox Daily Observations layout. Learn more.

38.89511, -77.03637

Hourly Observations for February 17, 2015

Temp ( °F °C ) Dew Point ( °F °C ) Humidity (%) Winds ( mph kmh ) Pressure ( in mb ) Visibility ( mi km ) Precip ( " mm )
12:12 am 00:12 Mostly Cloudy with Scattered Snow Showers 18 -8 10 -12 73 73 Calm 30.03 1017 0.75 1.207008 0 0
12:30 am 00:30 Mostly Cloudy with Snow 18 -8 10 -12 73 73 ENE 5 7 30.03 1017 0.5 0.804672 0 0
12:44 am 00:44 Mostly Cloudy with Heavy Snow 18 -8 10 -12 73 73 ENE 5 7 30 1016 0.25 0.402336 0 0
12:52 am 00:52 Mostly Cloudy with Heavy Snow 18 -8 10 -12 73 73 NE 3 6 30.03 1017 0.25 0.402336 0.07 1.778
1:02 am 01:02 Mostly Cloudy with Scattered Snow Showers 18 -8 10 -12 73 73 NE 5 7 30 1016 0.75 1.207008 0.01 0.254
1:27 am 01:27 Mostly Cloudy with Snow 18 -8 10 -12 73 73 ENE 5 7 30 1016 0.5 0.804672 0.04 1.016
1:40 am 01:40 Mostly Cloudy with Snow 18 -8 10 -12 73 73 ENE 5 7 29.97 1015 0.5 0.804672 0 0
1:52 am 01:52 Mostly Cloudy with Snow 18 -8 10 -12 73 73 NE 6 9 30 1016 0.5 0.804672 0.06 1.524
2:19 am 02:19 Mostly Cloudy with Scattered Snow Showers 18 -8 10 -12 73 73 ENE 7 11 29.97 1015 1 1.609344 0.04 1.016
2:52 am 02:52 Mostly Cloudy with Scattered Snow Showers 18 -8 10 -12 73 73 NNE 3 6 29.94 1014 1 1.609344 0.06 1.524
3:38 am 03:38 Cloudy with Light Snow 18 -8 10 -12 73 73 NE 6 9 29.94 1014 1.5 2.414016 0 0
3:52 am 03:52 Cloudy with Light Snow 18 -8 10 -12 73 73 NE 6 9 29.94 1014 1.5 2.414016 0.03 0.762
4:00 am 04:00 Cloudy with Light Snow 18 -8 10 -12 73 73 NNE 3 6 29.94 1014 2 3.218688 0 0
4:52 am 04:52 Cloudy with Light Snow 18 -8 10 -12 73 73 NNE 7 11 29.94 1014 3 4.828032 0.01 0.254
5:52 am 05:52 Cloudy with Light Snow 18 -8 10 -12 73 73 NE 7 11 29.91 1013 9 14.484096 0.001 0.001
6:52 am 06:52 Cloudy 18 -8 10 -12 73 73 NE 6 9 29.91 1013 10 16.09344 0.001 0.001
7:52 am 07:52 Cloudy 18 -8 10 -12 73 73 NNE 7 11 29.94 1014 10 16.09344 0 0
8:52 am 08:52 Cloudy 19 -7 10 -12 68 68 N 7 11 29.94 1014 10 16.09344 0 0
9:52 am 09:52 Cloudy 19 -7 10 -12 68 68 N 6 9 29.97 1015 10 16.09344 0 0
9:57 am 09:57 Cloudy 21 -6 10 -12 63 63 N 7 11 29.97 1015 10 16.09344 0 0
10:52 am 10:52 Partly Cloudy 23 -5 10 -12 58 58 N 7 11 29.94 1014 10 16.09344 0 0
11:52 am 11:52 Partly Cloudy 25 -4 9 -13 50 50 NNW 10 17 29.94 1014 10 16.09344 0 0
12:52 pm 12:52 Mostly Sunny 27 -3 10 -12 50 50 N 8 13 29.94 1014 10 16.09344 0 0
1:52 pm 13:52 Mostly Sunny 28 -2 10 -12 47 47 NNW 13 20 29.91 1013 10 16.09344 0 0
2:52 pm 14:52 Mostly Sunny 30 -1 10 -12 43 43 NNW 8 13 29.94 1014 10 16.09344 0 0
3:52 pm 15:52 Mostly Sunny 28 -2 9 -13 43 43 N 9 15 29.91 1013 10 16.09344 0 0
4:52 pm 16:52 Partly Cloudy 28 -2 9 -13 43 43 NW 7 11 29.91 1013 10 16.09344 0 0
5:52 pm 17:52 Mostly Cloudy 28 -2 9 -13 43 43 W 6 9 29.94 1014 10 16.09344 0 0
6:52 pm 18:52 Mostly Cloudy 28 -2 10 -12 47 47 WNW 5 7 29.94 1014 10 16.09344 0 0
7:52 pm 19:52 Mostly Cloudy 28 -2 10 -12 47 47 NNW 5 7 29.94 1014 10 16.09344 0 0
8:52 pm 20:52 Mostly Cloudy 25 -4 16 -9 69 69 S 5 7 29.97 1015 10 16.09344 0 0
9:52 pm 21:52 Mostly Cloudy 25 -4 12 -11 59 59 Calm 30 1016 10 16.09344 0 0
10:52 pm 22:52 Mostly Cloudy 21 -6 12 -11 68 68 Calm 30 1016 10 16.09344 0 0
11:52 pm 23:52 Mostly Cloudy 21 -6 14 -10 74 74 Calm 30 1016 10 16.09344 0 0

Powered by AerisWeather